TimeEDT,TemperatureF,Dew PointF,Humidity,Sea Level PressureIn,VisibilityMPH,Wind Direction,Wind SpeedMPH,Gust SpeedMPH,PrecipitationIn,Events,Conditions,WindDirDegrees,DateUTC
12:53 AM,73.9,71.1,91,29.88,9.0,South,6.9,-,N/A,,Overcast,180,2013-07-01 04:53:00
1:53 AM,73.9,71.1,91,29.88,9.0,South,4.6,-,N/A,,Overcast,170,2013-07-01 05:53:00
2:53 AM,73.0,70.0,90,29.87,10.0,SSE,6.9,-,N/A,,Overcast,150,2013-07-01 06:53:00
3:53 AM,73.0,70.0,90,29.86,10.0,South,3.5,-,N/A,,Overcast,170,2013-07-01 07:53:00
4:53 AM,73.9,71.1,91,29.88,9.0,South,3.5,-,N/A,,Overcast,180,2013-07-01 08:53:00
5:53 AM,73.9,71.1,91,29.89,8.0,SSE,5.8,-,N/A,,Overcast,160,2013-07-01 09:53:00
6:53 AM,73.9,71.1,91,29.89,7.0,SSE,6.9,-,N/A,,Overcast,160,2013-07-01 10:53:00
7:53 AM,75.9,72.0,87,29.90,9.0,South,11.5,-,0.00,,Overcast,170,2013-07-01 11:53:00
8:33 AM,75.2,71.6,89,29.95,8.0,WNW,8.1,-,0.00,Rain,Light Rain,290,2013-07-01 12:33:00
8:53 AM,72.0,68.0,87,29.94,10.0,NW,6.9,-,0.01,Rain,Light Rain,310,2013-07-01 12:53:00
9:13 AM,71.6,68.0,88,29.95,1.8,NNW,4.6,-,0.05,Rain,Heavy Rain,330,2013-07-01 13:13:00
9:23 AM,71.6,69.8,94,29.96,4.0,Calm,Calm,-,0.06,Rain,Light Rain,0,2013-07-01 13:23:00
9:33 AM,71.6,69.8,94,29.96,10.0,Calm,Calm,-,0.06,Rain,Light Rain,0,2013-07-01 13:33:00
9:40 AM,71.6,69.8,94,29.95,10.0,Calm,Calm,-,0.06,,Overcast,0,2013-07-01 13:40:00
9:51 AM,73.4,69.8,88,29.95,10.0,Calm,Calm,-,0.06,Rain,Light Rain,0,2013-07-01 13:51:00
9:53 AM,73.0,70.0,90,29.94,10.0,Calm,Calm,-,0.06,Rain,Light Rain,0,2013-07-01 13:53:00
10:06 AM,73.4,69.8,88,29.95,10.0,Calm,Calm,-,0.00,Rain,Light Rain,0,2013-07-01 14:06:00
10:53 AM,75.0,71.1,87,29.94,10.0,Calm,Calm,-,0.00,,Mostly Cloudy,0,2013-07-01 14:53:00
11:53 AM,77.0,72.0,84,29.95,10.0,SSW,5.8,-,0.00,Rain,Light Rain,210,2013-07-01 15:53:00
12:30 PM,77.0,71.6,83,29.96,10.0,South,5.8,-,0.01,Rain,Light Rain,190,2013-07-01 16:30:00
12:53 PM,77.0,72.0,84,29.94,10.0,South,9.2,-,0.01,Rain,Light Rain,180,2013-07-01 16:53:00
1:24 PM,77.0,73.4,89,29.97,8.0,South,3.5,-,0.01,Rain,Light Rain,180,2013-07-01 17:24:00
1:34 PM,77.0,73.4,89,29.97,5.0,SSE,4.6,-,0.02,Rain,Light Rain,160,2013-07-01 17:34:00
1:53 PM,77.0,73.0,88,29.94,4.0,SSE,6.9,-,0.04,Rain,Rain,160,2013-07-01 17:53:00
2:01 PM,75.2,73.4,94,29.96,2.5,South,8.1,-,0.05,Rain,Heavy Rain,180,2013-07-01 18:01:00
2:06 PM,75.2,73.4,94,29.96,3.0,South,9.2,-,0.06,Rain,Rain,180,2013-07-01 18:06:00
2:22 PM,77.0,73.4,89,29.97,9.0,South,11.5,-,0.06,Rain,Light Rain,190,2013-07-01 18:22:00
2:53 PM,75.9,72.0,87,29.94,8.0,South,10.4,-,0.07,Rain,Light Rain,180,2013-07-01 18:53:00
3:22 PM,75.2,71.6,89,29.96,9.0,South,8.1,-,0.00,Rain,Light Rain,170,2013-07-01 19:22:00
3:29 PM,75.2,71.6,89,29.96,9.0,South,9.2,-,0.00,Rain,Light Rain,180,2013-07-01 19:29:00
3:53 PM,75.9,72.0,87,29.95,10.0,South,10.4,-,0.00,,Overcast,190,2013-07-01 19:53:00
4:08 PM,75.2,71.6,89,29.96,10.0,South,8.1,-,0.00,,Overcast,180,2013-07-01 20:08:00
4:17 PM,75.2,71.6,89,29.97,10.0,South,8.1,-,0.00,,Overcast,190,2013-07-01 20:17:00
4:31 PM,75.2,71.6,89,29.97,10.0,South,9.2,-,0.00,Rain,Light Rain,190,2013-07-01 20:31:00
4:53 PM,75.0,72.0,90,29.95,10.0,South,6.9,-,0.01,Rain,Light Rain,190,2013-07-01 20:53:00
5:12 PM,75.2,71.6,89,29.97,10.0,South,6.9,-,0.00,,Mostly Cloudy,190,2013-07-01 21:12:00
5:53 PM,77.0,72.0,84,29.94,10.0,South,9.2,-,0.00,,Mostly Cloudy,190,2013-07-01 21:53:00
6:51 PM,77.0,71.6,83,29.98,10.0,South,9.2,-,N/A,,Overcast,180,2013-07-01 22:51:00
6:53 PM,77.0,72.0,84,29.96,10.0,South,9.2,-,N/A,,Overcast,190,2013-07-01 22:53:00
7:03 PM,77.0,71.6,83,29.99,10.0,South,11.5,-,N/A,,Overcast,190,2013-07-01 23:03:00
7:53 PM,75.9,71.1,85,29.98,10.0,South,15.0,-,N/A,,Overcast,190,2013-07-01 23:53:00
8:53 PM,75.0,71.1,87,29.99,10.0,South,8.1,-,N/A,,Overcast,170,2013-07-02 00:53:00
9:40 PM,75.2,71.6,89,30.02,10.0,South,5.8,-,N/A,,Overcast,170,2013-07-02 01:40:00
9:53 PM,75.0,71.1,87,30.00,10.0,SSE,8.1,-,N/A,,Overcast,160,2013-07-02 01:53:00
10:41 PM,75.2,71.6,89,30.02,10.0,SSE,6.9,-,N/A,,Mostly Cloudy,160,2013-07-02 02:41:00
10:53 PM,75.0,71.1,87,30.01,10.0,South,6.9,-,N/A,,Mostly Cloudy,170,2013-07-02 02:53:00
11:38 PM,75.2,71.6,89,30.03,10.0,South,6.9,-,N/A,,Overcast,170,2013-07-02 03:38:00
11:53 PM,75.0,71.1,87,30.02,10.0,South,9.2,-,N/A,,Overcast,180,2013-07-02 03:53:00